Location: Recife
(8.0585°S, 34.8848°W)
Time: 10:27:16
(UTC-03:00)

Explorer 7 - Pass Details

Date: 20 April 2026
Orbit: 427 x 536 km, 50.2° (Epoch: 14 May)

Event Time Altitude Azimuth Distance (km) Brightness Sun altitude
Rises 23:11:33 0° 323° (NW) 2,510 - -85.9°
Reaches altitude 10° 23:13:45 10° 324° (NW) 1,617 - -86.1°
Maximum altitude 23:17:23 86° 51° (NE) 461 - -86.2°
Drops below altitude 10° 23:20:56 10° 141° (SE) 1,569 - -86.2°
Sets 23:23:01 0° 142° (SE) 2,427 - -86.1°
